Location: Tierz
(42.1336°N, 0.3549°W)
Time: 11:50:34
(UTC+00:00)

Cosmos 2297 Rocket - Pass Details

Date: 29 October 2020
Orbit: 838 x 845 km, 71.0° (Epoch: 29 November)

Event Time Altitude Azimuth Distance (km) Brightness Sun altitude
Rises 17:31:20 0° 339° (NNW) 3,412 5.5 -6.7°
Reaches altitude 10° 17:33:51 10° 344° (NNW) 2,473 4.7 -7.1°
Maximum altitude 17:39:25 55° 62° (ENE) 1,009 2.3 -8.2°
Drops below altitude 10° 17:44:57 10° 140° (SE) 2,457 4.3 -9.2°
Sets 17:47:26 0° 144° (SE) 3,387 5.1 -9.6°
